Regional Weather Roundup
Issued by NWS Goodland, KS

Home | Current Version | Previous Version | Text Only | Print | Product List | Glossary Off
Versions: 1 2 3 4 5 6 7 8 9 10 11 12 13 14 15 16 17 18 19 20 21 22 23 24 25 26 27 28 29 30 31 32 33 34 35 36 37 38 39 40 41 42 43 44 45 46 47 48 49 50

000
ASUS43 KGLD 271208
RWRGLD

GOODLAND FORECAST AREA HOURLY WEATHER ROUNDUP
NATIONAL WEATHER SERVICE GOODLAND KS
600 AM MDT THU AUG 27 2015

...OFFICIAL OBSERVATIONS...

CITY           SKY/WX    TMP DP  RH WIND       PRES   REMARKS
GOODLAND KS    CLOUDY    69  54  58 S9        29.99F
HILL CITY KS   MOCLDY    71  60  68 SW6       29.95F
IMPERIAL NEB   MOCLDY    65  53  65 CALM      29.94F
MCCOOK NEB     PTCLDY    72  55  55 S3        29.92F
AKRON CO       PTCLDY    59  46  62 W12       30.05R
BURLINGTON CO  MOCLDY    71  49  45 S13       30.02F
LIMON CO       PTCLDY    62  46  55 W12       30.13R
$$

...UNOFFICIAL OBSERVATIONS...

CITY           SKY/WX    TMP DP  RH WIND       PRES   REMARKS
COLBY KS       CLEAR     73  57  56 S12       29.98F
GOVE KS          N/A     73  32  22 MISG        N/A
LENORA KS        N/A     67  32  27 MISG        N/A
NORTON KS      CLEAR     63  54  72 S3        29.94
SHARON SPRINGS   N/A     71  55  58 S13         N/A
KIT CARSON CO    N/A     63  49  61 MISG        N/A
$$


USA.gov is the U.S. government's official web portal to all federal, state and local government web resources and services.